Regional Weather Roundup
Issued by NWS

Home | Current Version | Previous Version | Text Only | Print | Product List | Glossary On
Versions: 1 2 3 4 5 6 7 8 9 10 11 12 13 14 15 16 17 18 19 20 21 22 23 24 25 26 27
000
ASCA42 TJSJ 221310
RWRPR
PUERTO RICO/U.S. VIRGIN ISLANDS HOURLY WEATHER ROUNDUP
NATIONAL WEATHER SERVICE SAN JUAN PR
900 AM AST WED NOV 22 2017

PRZ001>002-007>008-010-221400-
PUERTO RICO

CITY           SKY/WX    TMP DP  RH WIND       PRES   REMARKS
SAN JUAN LMM   MOSUNNY   82  73  74 CALM      29.97R
AGUADILLA      SUNNY     79  70  73 E3        29.98S
$$

VIZ001>002-221400-
U.S. VIRGIN ISLANDS

CITY           SKY/WX    TMP DP  RH WIND       PRES   REMARKS
CHARLOTTE AMA    N/A     82  73  74 MISG      29.97R
$$

HOURLY WEATHER ROUNDUP FOR THE NEWS MEDIA

CITY           SKY/WX    TMP DP  RH WIND       PRES   REMARKS
ORLANDO        FOG       64  64 100 CALM      29.98R VSB 1/4
NEW YORK       RAIN      52  52 100 CALM      29.91F
NEWARK         LGT RAIN  51  48  89 W6        29.91S
CHICAGO        PTCLDY    23  15  71 NW8       30.33R WCI  14
HARTFORD       HVY RAIN  53  52  96 CALM      29.94F FOG
BOSTON         RAIN      50  50 100 CALM      29.95S FOG
DALLAS         PTCLDY    42  17  36 N10       30.36R
PHILADELPHIA   CLOUDY    52  50  93 W5        29.92R
LOS ANGELES    CLEAR     68  35  29 NE6       30.02S
WASHINGTON DC  MOCLDY    47  42  83 NW6       29.96S



USA.gov is the U.S. government's official web portal to all federal, state and local government web resources and services.